TimeCST,TemperatureF,Dew PointF,Humidity,Sea Level PressureIn,VisibilityMPH,Wind Direction,Wind SpeedMPH,Gust SpeedMPH,PrecipitationIn,Events,Conditions,WindDirDegrees,DateUTC
1:54 AM,50.0,39.0,66,30.01,10.0,North,8.1,-,N/A,,Partly Cloudy,360,2012-12-04 07:54:00
2:54 AM,46.9,39.0,74,30.05,10.0,North,8.1,-,N/A,,Clear,350,2012-12-04 08:54:00
3:54 AM,46.9,39.0,74,30.06,10.0,NNW,6.9,-,N/A,,Clear,340,2012-12-04 09:54:00
4:54 AM,46.9,39.0,74,30.08,10.0,NNW,6.9,-,N/A,,Clear,340,2012-12-04 10:54:00
5:54 AM,45.0,37.9,76,30.09,10.0,North,8.1,-,N/A,,Clear,350,2012-12-04 11:54:00
6:54 AM,43.0,37.0,80,30.14,10.0,NNW,4.6,-,N/A,,Clear,330,2012-12-04 12:54:00
7:54 AM,42.1,37.0,82,30.16,10.0,NNW,5.8,-,N/A,,Clear,330,2012-12-04 13:54:00
8:54 AM,44.1,39.0,82,30.17,10.0,WNW,3.5,-,N/A,,Clear,290,2012-12-04 14:54:00
9:54 AM,46.9,37.9,71,30.20,10.0,NW,6.9,-,N/A,,Clear,310,2012-12-04 15:54:00
10:54 AM,50.0,37.0,61,30.22,10.0,NW,6.9,-,N/A,,Clear,320,2012-12-04 16:54:00
11:54 AM,51.8,37.4,58,30.20,10.0,WNW,8.1,-,N/A,,Clear,300,2012-12-04 17:54:00
12:54 PM,55.0,37.0,51,30.18,10.0,WNW,8.1,-,N/A,,Clear,300,2012-12-04 18:54:00
1:54 PM,57.0,35.1,44,30.18,10.0,NW,8.1,-,N/A,,Clear,310,2012-12-04 19:54:00
2:54 PM,57.9,33.1,39,30.20,9.0,West,5.8,-,N/A,,Clear,280,2012-12-04 20:54:00
3:54 PM,57.0,32.0,39,30.21,10.0,WSW,4.6,-,N/A,,Clear,250,2012-12-04 21:54:00
4:54 PM,52.0,34.0,50,30.22,10.0,SSW,4.6,-,N/A,,Clear,210,2012-12-04 22:54:00
5:54 PM,48.9,30.9,50,30.24,10.0,SSW,5.8,-,N/A,,Clear,210,2012-12-04 23:54:00
6:54 PM,46.9,30.9,54,30.25,10.0,SSW,4.6,-,N/A,,Clear,210,2012-12-05 00:54:00
7:54 PM,46.9,30.9,54,30.27,10.0,WSW,4.6,-,N/A,,Clear,240,2012-12-05 01:54:00
8:54 PM,45.0,30.0,56,30.27,10.0,WSW,4.6,-,N/A,,Clear,250,2012-12-05 02:54:00
9:54 PM,45.0,28.9,53,30.29,10.0,NW,6.9,-,N/A,,Clear,310,2012-12-05 03:54:00
10:54 PM,41.0,27.0,57,30.29,10.0,North,8.1,-,N/A,,Clear,10,2012-12-05 04:54:00
11:54 PM,37.9,27.0,65,30.31,10.0,NNE,8.1,-,N/A,,Clear,20,2012-12-05 05:54:00